Regional Weather Roundup
Issued by NWS

Home | Current Version | Previous Version | Text Only | Print | Product List | Glossary On
Versions: 1 2 3 4 5 6 7 8 9 10 11 12 13 14 15 16 17 18 19 20 21 22 23 24 25 26 27 28 29 30 31 32 33 34 35 36 37 38 39 40 41 42 43 44 45 46 47 48 49 50
000
ASUS45 KBOU 191407
RWRCO

WEATHER ROUNDUP FOR COLORADO
NATIONAL WEATHER SERVICE DENVER/BOULDER CO
800 AM MDT THU OCT 19 2017

NOTE: "FAIR" INDICATES FEW OR NO CLOUDS BELOW 12000 FEET WITH NO
SIGNIFICANT WEATHER AND/OR OBSTRUCTIONS TO VISIBILITY.

COZ001>005-013-030-031-191500-
...NORTHWEST COLORADO...

CITY           SKY/WX    TMP DP  RH WIND       PRES   REMARKS
CRAIG          FAIR      24  19  81 CALM      30.15F
HAYDEN         FAIR      37  16  42 E10       30.17S
MEEKER         FAIR      33  21  61 CALM      30.15F
RABBIT EARS PA FAIR      37   9  30 CALM      30.35S
STEAMBOAT SPGS FAIR      28  16  59 CALM      30.18F
WALDEN         NOT AVBL
$$

COZ006>008-011-191500-
...WEST CENTRAL VALLEYS...

CITY           SKY/WX    TMP DP  RH WIND       PRES   REMARKS
GRAND JUNCTION FAIR      41  18  39 CALM      30.10R
MONTROSE       FAIR      39  22  50 S3        30.16S
EAGLE          FAIR      28  20  71 CALM      30.28R
RIFLE          FAIR      37  22  54 CALM      30.16R
DELTA          FAIR      41  20  43 NE3       30.14S
NUCLA          FAIR      41  14  33 CALM      30.19S
$$

COZ017>023-064>068-191500-
...SOUTHWEST COLORADO...

CITY           SKY/WX    TMP DP  RH WIND       PRES   REMARKS
DURANGO        FAIR      36  22  56 CALM      30.20S
CORTEZ         CLOUDY    43  29  57 E5        30.15S
PAGOSA SPRINGS FAIR      37  18  46 CALM      30.26S
TELLURIDE      FAIR      43  22  42 SE7       30.32
WOLF CREEK PAS NOT AVBL
$$

COZ009-010-012-014-032>034-037-058>063-191500-
...CENTRAL COLORADO...

CITY           SKY/WX    TMP DP  RH WIND       PRES   REMARKS
ASPEN          FAIR      34  18  52 S9        30.22S WCI  27
BUENA VISTA    FAIR      33  16  50 W5        30.28S WCI  28
COPPER MTN     FAIR      45   5  19 S13       30.44S
BERTHOUD PASS  FAIR      36  27  69 W14       30.46S
COTTONWOOD PAS FAIR      50   5  16 CALM      30.35R
GUNNISON       FAIR      23  16  74 CALM      30.32S
KREMMLING      FAIR      23  19  86 CALM      30.30S
LEADVILLE      FAIR      27  10  49 CALM      30.34S
MONARCH PASS   FAIR      37   7  28 SW13      30.55S
SALIDA         NOT AVBL
SUNLIGHT       CLOUDY    39   9  28 SW8G16    30.39S
WILKERSON PASS FAIR      39   0  19 SW12      30.43S
$$

COZ069>075-191500-
...SAN LUIS VALLEY/SANGRE DE CRISTO MOUNTAINS...

CITY           SKY/WX    TMP DP  RH WIND       PRES   REMARKS
ALAMOSA        FAIR      28  18  66 W3        30.28R
DEL NORTE      FAIR      39  15  37 W16       30.29R
LA VETA PASS   FAIR      43  14  31 SW15G22   30.47S
SAGUACHE       FAIR      36  14  41 NW8       30.29R
$$

COZ035-036-038>040-191500-
...NORTHERN COLORADO FRONT RANGE...

CITY           SKY/WX    TMP DP  RH WIND       PRES   REMARKS
DENVER INTL AP FAIR      45  24  43 W6        30.08S
DMNS CITY PARK   N/A     42  28  56 E9        30.08S
AURORA         PTCLDY    45  27  49 W6        30.09S
FRONT RANGE AP MOCLDY    46  27  46 SW8       30.09S
ERIE MUNI ARPT FAIR      35  27  73 CALM      30.13S
BOULDER MUN AP FAIR      41  25  52 CALM      30.07S
CENTENNIAL     FAIR      50  23  34 S5        30.09S
BROOMFIELD     MOCLDY    46  23  39 CALM      30.09R
FORT COLLINS   FAIR      40  32  73 NW3       30.08S
LONGMONT       FAIR      40  26  56 W5        30.09S
$$

COZ041-046-047-076>085-087-088-191500-
...PIKES PEAK/PALMER DIVIDE AND SOUTHERN FOOTHILLS...

CITY           SKY/WX    TMP DP  RH WIND       PRES   REMARKS
COLO. SPRINGS  FAIR      44  27  51 NE10      30.15S
A. F. ACADEMY  CLEAR     34  22  61 N12       30.15S WCI  26
SCHRIEVER AFB  FAIR      49  25  39 N6        30.15S
CHEYENNE MTN   NOT AVBL
ELLICOTT       FAIR     N/A N/A N/A CALM      30.13S
FALCON         FAIR      42  23  46 NW5       30.18S
FORT CARSON    FAIR      47  23  39 NW7       30.12S
LIMON          FAIR      35  30  82 N3        30.11S
MONUMENT HILL  FAIR      45  21  39 S12G25    30.17S
CANON CITY     CLEAR     55  18  22 W13       30.11S
WALSENBURG     FAIR      50  21  32 CALM      30.15R
TRINIDAD       FAIR      46  26  45 W12       30.14S
$$

COZ042>045-048>051-090-091-191500-
...NORTHEAST COLORADO...

CITY           SKY/WX    TMP DP  RH WIND       PRES   REMARKS
GREELEY ARPT   FAIR      32  28  85 SW3       30.08R
AKRON          FAIR      46  30  53 SW10      30.06S
BURLINGTON     FAIR      44  37  76 S3        30.08S
WRAY           FAIR      37  34  87 W7        30.06S
YUMA           FAIR      37  32  81 W3        30.06F
STERLING       FAIR      36  32  87 CALM      30.04S
HOLYOKE        FAIR      39  34  81 W7        30.06S
FORT MORGAN    FAIR      36  27  67 W7        30.06S
$$

COZ086-089-092>099-191500-
...SOUTHEAST COLORADO...

CITY           SKY/WX    TMP DP  RH WIND       PRES   REMARKS
PUEBLO         FAIR      36  27  69 CALM      30.10S
LA JUNTA       FAIR      42  31  64 SW6       30.09S
LAMAR          LGT SNOW  40  33  76 SW5       30.07S
SPRINGFIELD      N/A     47  40  76 NW5       30.09R
$$



USA.gov is the U.S. government's official web portal to all federal, state and local government web resources and services.